Overview Statistics Trail Chart Weather Telemetry Raw packets
 

This is the latest recevied weather packets stored in our database for station/object EA5GK-10. If no packets are shown the sender has not sent any weather packets the latest 10 day(s).

<< 28 29 30 31 32 33 34 >>
Time Temp. Humidity Pressure Rain* Wind** Luminosity Snow
1787945988 25° C 42% 1019.4 hPa - - - -
1787945088 25.56° C 42% 1019.1 hPa - - - -
1787944188 25.56° C 41% 1018.8 hPa - - - -
1787943288 25.56° C 41% 1018.8 hPa - - - -
1787942388 26.11° C 41% 1018.6 hPa - - - -
1787941488 26.11° C 40% 1018.6 hPa - - - -
1787940588 26.67° C 39% 1018.4 hPa - - - -
1787939688 26.67° C 38% 1018.5 hPa - - - -
1787938788 27.22° C 38% 1018.4 hPa - - - -
1787937887 27.22° C 37% 1018.4 hPa - - - -
1787936987 27.22° C 36% 1018.3 hPa - - - -
1787936087 27.22° C 36% 1018.3 hPa - - - -
1787935187 27.22° C 36% 1018.3 hPa - - - -
1787934287 27.22° C 37% 1018.3 hPa - - - -
1787933387 27.22° C 37% 1018.2 hPa - - - -
1787932487 27.22° C 37% 1018.1 hPa - - - -
1787931586 26.67° C 38% 1018.5 hPa - - - -
1787930686 26.11° C 39% 1019 hPa - - - -
1787929786 25.56° C 39% 1019 hPa - - - -
1787928886 25.56° C 40% 1019.4 hPa - - - -
1787927986 25.56° C 40% 1019.4 hPa - - - -
1787927086 25.56° C 39% 1019.7 hPa - - - -
1787926186 25.56° C 40% 1019.9 hPa - - - -
1787925285 25.56° C 40% 1019.9 hPa - - - -
1787924385 25.56° C 41% 1019.6 hPa - - - -

* Rain since midnight (hover to see other rain measurements)
** Current wind speed in m/s (hover to see current wind gust speed)